This is the latest recevied weather packets stored in our database for station/object WA6MHA-11. If no packets are shown the sender has not sent any weather packets the latest 1 day(s).
| Time | Temp. | Humidity | Pressure | Rain* | Wind** | Luminosity | Snow |
|---|---|---|---|---|---|---|---|
| 1778014231 | 23.89° C | 29% | 1015.3 hPa | 0 mm | 2.68 m/s, 194° | - | - |
| 1778013989 | 22.78° C | 29% | 1015.3 hPa | 0 mm | 2.24 m/s, 180° | - | - |
| 1778013754 | 22.22° C | 28% | 1015.3 hPa | 0 mm | 0.89 m/s, 90° | - | - |
| 1778013266 | 22.22° C | 27% | 1015.2 hPa | 0 mm | 3.58 m/s, 207° | - | - |
| 1778012783 | 22.78° C | 27% | 1015.2 hPa | 0 mm | 0.89 m/s, 153° | - | - |
| 1778012542 | 23.33° C | 27% | 1015.3 hPa | 0 mm | 0.89 m/s, 210° | - | - |
| 1778012301 | 23.33° C | 28% | 1015.2 hPa | 0 mm | 0.89 m/s, 195° | - | - |
| 1778012059 | 23.33° C | 28% | 1015.2 hPa | 0 mm | 2.68 m/s, 209° | - | - |
| 1778011818 | 22.78° C | 28% | 1015.3 hPa | 0 mm | 0.89 m/s, 198° | - | - |
| 1778011577 | 22.78° C | 28% | 1015.3 hPa | 0 mm | 3.13 m/s, 189° | - | - |
| 1778011335 | 22.22° C | 27% | 1015.2 hPa | 0 mm | 1.34 m/s, 175° | - | - |
| 1778011096 | 22.22° C | 27% | 1015.2 hPa | 0 mm | 0.89 m/s, 162° | - | - |
| 1778010854 | 21.67° C | 26% | 1015.3 hPa | 0 mm | 1.34 m/s, 180° | - | - |
| 1778010612 | 21.11° C | 27% | 1015.3 hPa | 0 mm | 3.58 m/s, 135° | - | - |
| 1778010371 | 23.33° C | 28% | 1015.4 hPa | 0 mm | 1.34 m/s, 177° | - | - |
| 1778010129 | 23.89° C | 29% | 1015.3 hPa | 0 mm | 2.24 m/s, 186° | - | - |
| 1778009887 | 23.33° C | 29% | 1015.4 hPa | 0 mm | 3.13 m/s, 135° | - | - |
| 1778009165 | 23.33° C | 29% | 1015.5 hPa | 0 mm | 2.24 m/s, 193° | - | - |
| 1778008682 | 24.44° C | 30% | 1015.5 hPa | 0 mm | 4.02 m/s, 135° | - | - |
| 1778008442 | 26.11° C | 30% | 1015.5 hPa | 0 mm | 1.79 m/s, 155° | - | - |
| 1778008440 | 26.11° C | 30% | 1015.5 hPa | 0 mm | 1.79 m/s, 155° | - | - |
| 1778007957 | 25° C | 30% | 1015.5 hPa | 0 mm | 0.89 m/s, 225° | - | - |
| 1778007716 | 25° C | 30% | 1015.5 hPa | 0 mm | 0 m/s | - | - |
| 1778007510 | 25° C | 31% | 1015.5 hPa | 0 mm | 0.45 m/s, 83° | - | - |
| 1778007476 | 25° C | 31% | 1015.5 hPa | 0 mm | 0.45 m/s, 83° | - | - |
* Rain since midnight (hover to see other rain measurements)
** Current wind speed in m/s (hover to see current wind gust speed)